Location: Caltech
(34.1382°N, 118.1253°W)
Time: 15:10:16
(UTC-07:00)

Cosmos 1758 Rocket - Visible Passes

Search period start: 21 September 2014 00:00
Search period end: 01 October 2014 00:00
Orbit: 604 x 637 km, 82.5° (Epoch: 20 September)

Date Brightness Start Highest point End Pass type
(mag) Time Alt. Az. Time Alt. Az. Time Alt. Az.
21 Sep 4.6 04:54:53 10° SSE 04:58:59 44° E 05:03:08 10° NNE visible
22 Sep 3.4 05:12:32 10° S 05:16:51 86° W 05:21:15 10° N visible
23 Sep 6.5 03:55:35 10° ESE 03:57:24 13° E 03:59:14 10° ENE visible
23 Sep 3.9 05:31:39 15° SW 05:34:50 41° W 05:38:58 10° N visible
24 Sep 5.6 04:13:33 20° ESE 04:15:06 25° E 04:18:40 10° NE visible
24 Sep 4.8 05:50:49 15° WSW 05:52:55 21° WNW 05:56:14 10° NNW visible
25 Sep 4.2 04:32:32 49° ESE 04:32:54 51° E 04:37:09 10° NNE visible
25 Sep 5.5 06:10:19 10° W 06:11:07 10° WNW 06:11:54 10° WNW visible
26 Sep 3.6 04:51:22 64° NNW 04:51:22 64° NNW 04:55:11 10° N visible
27 Sep 6.6 03:32:50 12° ENE 03:32:50 12° ENE 03:33:37 10° NE visible
27 Sep 4.6 05:10:05 29° NW 05:10:05 29° NW 05:12:51 10° NNW visible
28 Sep 6.2 03:51:27 17° NE 03:51:27 17° NE 03:52:46 10° NNE visible
28 Sep 5.4 05:28:42 15° NW 05:28:42 15° NW 05:29:59 10° NNW visible
29 Sep 5.9 04:09:59 18° NNE 04:09:59 18° NNE 04:11:09 10° NNE visible
30 Sep 6.0 04:28:27 14° N 04:28:27 14° N 04:29:07 10° N visible
